Tracking 18942 objects as of 17-Jan-2018
HD Live streaming from Space Station
objects crossing your sky now

AENEAS

Track AENEAS now!
10-day predictions
AENEAS is classified as:


NORAD ID: 38760
Int'l Code: 2012-048C
Perigee: 482.0 km
Apogee: 641.0 km
Inclination: 64.7 °
Period: 95.7 minutes
Semi major axis: 6932 km
RCS: Unknown
Launch date: September 13, 2012
Source: United States (US)
Launch site: AIR FORCE WESTERN TEST RANGE (AFWTR)
Uplink (MHz):
Downlink (MHz): 437.600
Beacon (MHz): 437.600
Mode: 1200bps AFSK
Call sign: KE6YFA-1
Status: Active

aabbcc
Your satellite tracking list
Your tracking list is empty




NASA's NSSDC Master Catalog

Two Line Element Set (TLE):
1 38760U 12048C   18016.34501112 +.00000984 +00000-0 +74184-4 0 01937
2 38760 064.6625 049.7441 0114679 032.5112 328.3013 15.04059941031828
Source of the keplerian elements: Caltech